[[{"header":{"parameterUnit":"m.s-1","parameterCategory":1,"la1":30.2991,"la2":30.254,"lo1":-89.0895,"lo2":-89.0444,"dy":0.0017,"dx":0.0017,"nx":28,"ny":28,"refTime":"2023-04-29T21:00:00:Z","depth":0,"parameterNumber":2,"parameterNumberName":"U-component_of_WINDS"},"data":[0,0,0,0,0,0,0,0,0,0,0,0,0,0,0,0,0,0,0,0,0,0,0,0,0,0,0,0,0,0,0,0,0,0,0,0,0,0,0,0,0,0,0,0,0,0,0,0,0,0,0,0,0,0,0,0,0,0,2.0835,2.0836,0,2.0936,2.0938,2.0939,2.092,2.0918,2.0916,2.0915,2.1023,2.1027,2.1032,0,0,0,0,0,0,0,0,0,0,0,0,0,2.0632,2.0636,2.0835,2.0837,2.0838,2.0936,2.0938,2.0939,2.092,2.0918,2.0916,2.0914,2.1021,2.1027,2.1032,0,0,0,0,0,0,0,0,0,0,0,0,0,2.0726,2.0637,2.0835,2.084,2.0842,2.0936,2.0938,2.0939,2.0921,2.0918,2.0915,2.0913,2.102,2.1026,2.1033,2.113,0,0,2.1054,2.1057,0,0,0,0,0,0,0,0,2.072,2.0733,2.0838,2.084,2.0842,2.0913,2.0906,2.1003,2.0921,2.0891,2.0915,2.0911,2.0989,2.0998,2.1023,2.1135,2.114,2.1055,2.1059,2.1062,2.1064,0,0,0,0,0,0,0,2.0714,2.0729,2.0875,2.084,2.0842,2.0839,2.085,2.0924,2.0954,2.0893,2.0892,2.0904,2.0989,2.1017,2.1025,2.1141,2.1054,2.1061,2.1065,2.1067,2.1342,2.1345,0,0,0,0,0,0,2.0705,2.0723,2.0872,2.0878,2.0773,2.0845,2.0857,2.0893,2.0953,2.096,2.0906,2.0903,2.1006,2.1018,2.1029,2.115,2.1062,2.1068,2.1072,2.1338,2.1342,2.1346,0,0,0,0,0,0,2.0701,2.0718,2.0868,2.0801,2.0819,2.0852,2.0892,2.0896,2.0923,2.0963,2.0969,2.0928,2.1004,2.102,2.1106,2.1153,2.1071,2.1077,2.1335,2.134,2.1344,2.1389,0,0,0,0,0,0,2.0695,2.0717,2.0753,2.0802,2.0823,2.0941,2.0895,2.09,2.0935,2.0931,2.0985,2.0992,2.1003,2.1095,2.1112,2.1161,2.1083,2.1331,2.1337,2.1342,2.1383,2.1395,2.1404,0,0,0,0,0,2.0688,2.0762,2.0754,2.0773,2.0868,2.0944,2.0956,2.0967,2.0938,2.0976,2.1002,2.099,2.1144,2.1104,2.1123,2.1175,2.1328,2.1335,2.1342,2.1379,2.1392,2.1404,0,0,0,0,0,0,2.0719,2.0768,2.0761,2.0852,2.0894,2.094,2.0988,2.0981,2.1033,2.1027,2.104,2.1053,2.1141,2.1166,2.112,2.1273,2.1232,2.1244,2.1254,2.1267,2.1277,2.1271,2.1089,0,0,0,0,0,2.0736,2.0791,2.0832,2.0909,2.093,2.0955,2.0989,2.0993,2.1038,2.1056,2.1088,2.1133,2.1192,2.123,2.1286,2.1386,2.14,2.1431,2.1441,2.145,2.146,2.1519,2.1534,2.1369,2.1369,2.1369,0,0,2.0772,2.0806,2.0841,2.0916,2.0949,2.1009,2.097,2.1034,2.108,2.1066,2.115,2.1175,2.1226,2.132,2.1363,2.1344,2.1509,2.1459,2.1465,2.1471,2.1527,2.1543,2.1557,2.1374,2.1373,2.1372,0,0,2.087,2.09,2.0969,2.1003,2.1052,2.1069,2.1085,2.1133,2.115,2.1233,2.1225,2.128,2.138,2.1418,2.145,2.1564,2.1557,2.1582,2.1637,2.1694,2.1707,2.1719,2.1763,2.1778,2.1592,2.1592,2.1592,0,2.091,2.0998,2.1005,2.1071,2.1106,2.1095,2.1166,2.1199,2.1265,2.1291,2.1268,2.1395,2.1429,2.1533,2.1561,2.1586,2.1608,2.1577,2.1704,2.1716,2.1727,2.1769,2.1785,2.1595,2.1594,2.1594,2.1594,0,2.1046,2.1108,2.1157,2.1221,2.1261,2.1329,2.135,2.139,2.1391,2.1411,2.1498,2.1538,2.1603,2.1628,2.163,2.1734,2.1721,2.17,2.166,2.1746,2.1786,2.1802,2.1599,2.1598,2.1597,2.1596,0,0,2.1168,2.1235,2.1253,2.1283,2.1338,2.1387,2.1455,2.1518,2.1554,2.16,2.1661,2.1746,2.1729,2.1766,2.1772,2.1821,2.1913,2.1796,2.1797,2.1819,2.2034,2.2051,2.207,2.1907,2.191,2.1913,2.2031,0,2.1273,2.1393,2.1403,2.1512,2.157,2.1561,2.1622,2.1663,2.1684,2.1738,2.1761,2.1823,2.1793,2.1816,2.1864,2.1892,2.1957,2.1883,2.1967,2.197,2.1957,2.209,2.2108,2.2218,2.2047,2.2049,2.2051,0,2.1412,2.1463,2.1577,2.1626,2.1651,2.1705,2.1765,2.1816,2.1864,2.1875,2.1917,2.1917,2.1991,2.1946,2.205,2.1999,2.2034,2.2053,2.2057,2.2068,2.2018,2.2108,2.2252,2.227,2.2075,2.2073,2.2071,0,2.1494,2.159,2.1672,2.1697,2.1755,2.1794,2.182,2.1865,2.1903,2.1955,2.1981,2.2042,2.2076,2.2124,2.2142,2.2107,2.2247,2.2202,2.2261,2.2261,2.2294,2.2292,2.2449,2.231,2.231,2.231,2.2309,0,2.1613,2.1684,2.1709,2.176,2.1841,2.1852,2.1932,2.1956,2.1997,2.2054,2.2049,2.2104,2.2122,2.2181,2.2195,2.2281,2.2295,2.2309,2.2313,2.2312,2.2311,2.2337,2.2331,2.2314,2.2313,2.2312,2.2312,0,2.1718,2.1737,2.1827,2.1874,2.1888,2.1946,2.1987,2.2038,2.2057,2.213,2.2148,2.2179,2.2248,2.2269,2.2352,2.2362,2.2464,2.2459,2.2447,2.2449,2.2508,2.2504,2.2691,2.2718,2.2558,2.2559,2.2561,0,2.1794,2.1849,2.1902,2.194,2.1967,2.2027,2.2066,2.2079,2.2121,2.218,2.2224,2.2292,2.2347,2.2457,2.2489,2.2553,2.2552,2.2613,2.2562,2.256,2.2558,2.2556,2.2563,2.2624,2.2626,2.2627,2.2628,0,2.1929,2.1936,2.1991,2.205,2.2096,2.2144,2.219,2.2221,2.2242,2.2288,2.2358,2.24,2.2485,2.2554,2.2619,2.2649,2.2644,2.2644,2.2662,2.2663,2.2655,2.2664,2.2477,2.264,2.2639,2.2638,2.2637,2.2637,2.2024,2.2074,2.212,2.2182,2.2218,2.2261,2.2312,2.2337,2.2395,2.2464,2.2468,2.2545,2.2594,2.2681,2.2714,2.2776,2.2759,2.2783,2.279,2.2797,2.2804,2.2642,2.2787,2.2787,2.2787,2.2786,2.2786,0,2.2162,2.2191,2.2248,2.2312,2.2362,2.235,2.2401,2.2444,2.2511,2.2556,2.261,2.2691,2.2758,2.2795,2.2862,2.2905,2.2905,2.2923,2.2922,2.2929,2.2813,2.2793,2.2922,2.2922,2.2922,2.2922,2.2922,2.2922,2.2239,2.2323,2.2336,2.2439,2.2468,2.2541,2.2572,2.2613,2.2649,2.274,2.2795,2.2818,2.2861,2.2932,2.2994,2.3003,2.303,2.305,2.3059,2.2951,2.2937,2.2924,2.2905,2.3055,2.3055,2.317,2.3171,2.3172]},{"header":{"parameterUnit":"m.s-1","parameterCategory":1,"la1":30.2991,"la2":30.254,"lo1":-89.0895,"lo2":-89.0444,"dy":0.0017,"dx":0.0017,"nx":28,"ny":28,"refTime":"2023-04-29T21:00:00:Z","depth":0,"parameterNumber":3,"parameterNumberName":"V-component_of_WINDS"},"data":[0,0,0,0,0,0,0,0,0,0,0,0,0,0,0,0,0,0,0,0,0,0,0,0,0,0,0,0,0,0,0,0,0,0,0,0,0,0,0,0,0,0,0,0,0,0,0,0,0,0,0,0,0,0,0,0,0,0,-1.9273,-1.9273,0,-1.9295,-1.9295,-1.9295,-1.9307,-1.9307,-1.9307,-1.9307,-1.9327,-1.9328,-1.9328,0,0,0,0,0,0,0,0,0,0,0,0,0,-1.9241,-1.9241,-1.9273,-1.9273,-1.9274,-1.9295,-1.9295,-1.9295,-1.9307,-1.9307,-1.9307,-1.9307,-1.9327,-1.9328,-1.9328,0,0,0,0,0,0,0,0,0,0,0,0,0,-1.9258,-1.9241,-1.9273,-1.9282,-1.9283,-1.9295,-1.9295,-1.9296,-1.9307,-1.9307,-1.9307,-1.9307,-1.9327,-1.9328,-1.9328,-1.9332,0,0,-1.9331,-1.9331,0,0,0,0,0,0,0,0,-1.9257,-1.9259,-1.928,-1.9281,-1.9283,-1.9298,-1.9291,-1.9308,-1.9307,-1.9298,-1.9307,-1.9307,-1.9317,-1.9319,-1.9323,-1.9333,-1.9334,-1.9331,-1.9331,-1.9332,-1.9332,0,0,0,0,0,0,0,-1.9256,-1.9258,-1.9282,-1.9281,-1.9282,-1.9285,-1.9287,-1.9294,-1.9307,-1.9299,-1.93,-1.9302,-1.9318,-1.9322,-1.9323,-1.9334,-1.9331,-1.9331,-1.9332,-1.9332,-1.9351,-1.9351,0,0,0,0,0,0,-1.9253,-1.9257,-1.9281,-1.9282,-1.927,-1.9285,-1.9288,-1.9293,-1.9307,-1.9309,-1.9302,-1.9303,-1.9321,-1.9323,-1.9324,-1.9331,-1.9332,-1.9332,-1.9333,-1.9351,-1.9351,-1.9351,0,0,0,0,0,0,-1.9252,-1.9255,-1.928,-1.927,-1.9273,-1.9286,-1.9291,-1.9294,-1.9298,-1.931,-1.9312,-1.9304,-1.9321,-1.9323,-1.9331,-1.9332,-1.9333,-1.9333,-1.935,-1.9351,-1.9351,-1.9343,0,0,0,0,0,0,-1.9251,-1.9255,-1.9256,-1.927,-1.9274,-1.9286,-1.9292,-1.9294,-1.9299,-1.93,-1.9312,-1.9314,-1.9321,-1.9329,-1.9331,-1.9333,-1.9334,-1.935,-1.935,-1.9351,-1.9343,-1.9343,-1.9343,0,0,0,0,0,-1.925,-1.9253,-1.9256,-1.9259,-1.9276,-1.9286,-1.9288,-1.9297,-1.9299,-1.9301,-1.9309,-1.9314,-1.9331,-1.933,-1.9332,-1.9334,-1.935,-1.935,-1.9351,-1.9344,-1.9343,-1.9343,0,0,0,0,0,0,-1.9237,-1.9254,-1.9259,-1.9266,-1.9275,-1.9288,-1.9291,-1.9296,-1.9304,-1.9304,-1.9315,-1.9317,-1.9324,-1.933,-1.9328,-1.9339,-1.9341,-1.9342,-1.9335,-1.9335,-1.9335,-1.9333,-1.9334,0,0,0,0,0,-1.9236,-1.9243,-1.9257,-1.9262,-1.9266,-1.9278,-1.9282,-1.9289,-1.9298,-1.9302,-1.931,-1.9318,-1.9326,-1.9331,-1.9338,-1.9344,-1.9348,-1.9347,-1.9346,-1.9346,-1.9346,-1.9351,-1.9352,-1.9351,-1.9351,-1.9351,0,0,-1.9231,-1.9242,-1.9245,-1.9259,-1.9267,-1.9275,-1.9281,-1.9288,-1.9293,-1.9302,-1.9311,-1.9317,-1.9327,-1.9335,-1.9338,-1.934,-1.9347,-1.9346,-1.9346,-1.9346,-1.9352,-1.9352,-1.9352,-1.9351,-1.9351,-1.9351,0,0,-1.9228,-1.9236,-1.9242,-1.925,-1.9262,-1.927,-1.9271,-1.9285,-1.929,-1.9299,-1.9306,-1.9313,-1.9325,-1.9333,-1.9338,-1.934,-1.9345,-1.9342,-1.934,-1.9345,-1.9345,-1.9345,-1.9347,-1.9347,-1.9342,-1.9342,-1.9342,0,-1.9221,-1.9233,-1.9243,-1.9251,-1.9257,-1.9267,-1.9273,-1.928,-1.9294,-1.9298,-1.93,-1.9317,-1.9325,-1.9335,-1.9335,-1.9339,-1.9341,-1.934,-1.9344,-1.9344,-1.9345,-1.9346,-1.9347,-1.9342,-1.9342,-1.9342,-1.9342,0,-1.9224,-1.9232,-1.9235,-1.925,-1.9257,-1.9263,-1.9275,-1.9281,-1.9287,-1.9295,-1.9304,-1.9314,-1.9324,-1.9327,-1.9332,-1.9338,-1.9339,-1.9342,-1.9345,-1.9344,-1.9346,-1.9346,-1.9341,-1.9342,-1.9342,-1.9342,0,0,-1.9211,-1.9234,-1.9235,-1.9242,-1.9257,-1.9264,-1.9271,-1.9283,-1.9288,-1.9297,-1.9304,-1.9316,-1.932,-1.9326,-1.9332,-1.9337,-1.9339,-1.9339,-1.934,-1.934,-1.9347,-1.9345,-1.9346,-1.9343,-1.9343,-1.9343,-1.9347,0,-1.921,-1.9225,-1.9236,-1.9246,-1.9255,-1.9266,-1.9272,-1.9283,-1.9291,-1.9299,-1.9307,-1.9316,-1.932,-1.9324,-1.9329,-1.9338,-1.9341,-1.9337,-1.9349,-1.9349,-1.9347,-1.9346,-1.9344,-1.9347,-1.9347,-1.9348,-1.9348,0,-1.9211,-1.9222,-1.9233,-1.925,-1.9254,-1.926,-1.9272,-1.928,-1.9292,-1.9297,-1.9306,-1.9313,-1.9322,-1.9324,-1.9336,-1.9334,-1.934,-1.9345,-1.9345,-1.9347,-1.9348,-1.9348,-1.9348,-1.9349,-1.9349,-1.9349,-1.9348,0,-1.9202,-1.9219,-1.9229,-1.9235,-1.9254,-1.9258,-1.9266,-1.9278,-1.9285,-1.9296,-1.9301,-1.9312,-1.9318,-1.9326,-1.9337,-1.9337,-1.9349,-1.9351,-1.9354,-1.9354,-1.9356,-1.9355,-1.9357,-1.9359,-1.9359,-1.9359,-1.9359,0,-1.9199,-1.9206,-1.9225,-1.9231,-1.924,-1.9253,-1.9261,-1.9269,-1.9281,-1.9289,-1.9298,-1.9306,-1.9319,-1.9328,-1.9336,-1.9346,-1.9348,-1.9353,-1.9355,-1.9353,-1.9352,-1.9356,-1.9357,-1.9359,-1.9359,-1.9359,-1.9359,0,-1.919,-1.9203,-1.9215,-1.9233,-1.9237,-1.9243,-1.9258,-1.9264,-1.9274,-1.9284,-1.9287,-1.9302,-1.9313,-1.9325,-1.9339,-1.9345,-1.9355,-1.9357,-1.9351,-1.9352,-1.9355,-1.9355,-1.9359,-1.9361,-1.9361,-1.9361,-1.9361,0,-1.9188,-1.9194,-1.9213,-1.922,-1.9228,-1.9238,-1.9246,-1.9259,-1.9267,-1.9283,-1.9287,-1.93,-1.931,-1.9328,-1.9339,-1.9351,-1.9354,-1.9355,-1.9356,-1.9354,-1.9355,-1.9355,-1.9356,-1.9355,-1.9355,-1.9355,-1.9355,0,-1.9183,-1.919,-1.9201,-1.9215,-1.9224,-1.9236,-1.9247,-1.9252,-1.9267,-1.9276,-1.9288,-1.9296,-1.9313,-1.9325,-1.9339,-1.9347,-1.9354,-1.9355,-1.9356,-1.9353,-1.935,-1.9353,-1.935,-1.9354,-1.9354,-1.9354,-1.9354,-1.9354,-1.9178,-1.9184,-1.92,-1.9212,-1.9223,-1.9234,-1.9241,-1.9253,-1.9264,-1.9279,-1.9286,-1.9299,-1.9312,-1.9331,-1.934,-1.935,-1.9351,-1.9353,-1.9354,-1.9354,-1.9354,-1.9348,-1.9352,-1.9352,-1.9352,-1.9352,-1.9352,0,-1.9174,-1.9185,-1.9197,-1.9214,-1.9224,-1.9231,-1.9244,-1.9252,-1.9264,-1.9276,-1.9287,-1.9302,-1.9315,-1.9329,-1.9342,-1.9348,-1.9351,-1.9351,-1.9351,-1.9353,-1.9351,-1.9349,-1.9348,-1.9348,-1.9348,-1.9348,-1.9348,-1.9348,-1.9173,-1.9185,-1.9194,-1.9212,-1.9223,-1.9236,-1.9244,-1.9254,-1.9265,-1.9282,-1.9293,-1.9302,-1.9315,-1.933,-1.9342,-1.9346,-1.9351,-1.9349,-1.9354,-1.9352,-1.9353,-1.9353,-1.9351,-1.935,-1.935,-1.9355,-1.9355,-1.9355]}]]